Flag for Canada Weather past 2 weeks in Windsor, Ontario, Canada

Now
19 °F

Broken clouds.


Feels Like: 4 °F
Forecast: N/A
Wind: 18 mph from Northeast

Location: Windsor Weather Station

Current Time: Jan 25, 2015 at 5:58:56 PM

Latest Report: Jan 25, 2015 at 5:00 PM


Visibility: 15 mi

Pressure: 29.96 "Hg

Humidity: 58%

Dew point: 7 °F

Location of WindsorLocation

Historic Weather in Windsor — Graph

°F

Windsor temperature yesterday

Maximum temperature yesterday: 36 °F (at 9:00 PM)
Minimum temperature yesterday: 19 °F (at 1:00 AM)
Average temperature yesterday: 29 °F

Past Weeks' High & Low Weather Summary

 TemperatureHumidityPressure
High41 °F (Jan 18, 1:00 AM)100% (Jan 11, 9:00 PM)30.80 "Hg (Jan 11, 9:00 PM)
Low1 °F (Jan 13, 8:00 PM)51% (Jan 16, 11:00 AM)29.57 "Hg (Jan 24, 2:00 PM)
Average23 °F79%30.13 "Hg
* Reported Jan 10 5:00 PM — Jan 25 5:00 PM, Windsor, Weather by CustomWeather, © 2014

Note: Actual official high and low records may vary slightly from our data, if they occured in-between our weather recording intervals... More about our weather records

Advertising

Windsor weather history for previous 24 hours

 ConditionsComfort  
Time TempWeatherWind HumidityBarometerVisibility
5:00 PM
Jan 25
19 °FBroken clouds.18 mph58%29.96 "Hg15 mi
4:00 PM21 °FPartly sunny.15 mph63%29.94 "Hg15 mi
3:00 PM21 °FPartly sunny.16 mph74%29.92 "Hg15 mi
2:00 PM21 °FPartly sunny.14 mph80%29.92 "Hg15 mi
1:00 PM21 °FOvercast.15 mph80%29.93 "Hg15 mi
12:00 PM23 °FMostly cloudy.16 mph74%29.94 "Hg15 mi
11:00 AM25 °FMostly cloudy.18 mph74%29.93 "Hg15 mi
10:00 AM25 °FMore clouds than sun.17 mph74%29.90 "Hg15 mi
9:00 AM25 °FOvercast.21 mph74%29.88 "Hg15 mi
8:00 AM25 °FPartly sunny.20 mph80%29.86 "Hg15 mi
7:00 AM27 °FLight snow. Overcast.15 mph80%29.83 "Hg10 mi
6:00 AM27 °FLight snow. Overcast.15 mph86%29.79 "Hg8 mi
5:00 AM30 °FLight snow. Low clouds.13 mph86%29.78 "Hg12 mi
4:00 AM32 °FLight snow. Mostly cloudy.14 mph87%29.74 "Hg7 mi
3:00 AM34 °FLight snow. Overcast.6 mph93%29.72 "Hg7 mi
2:50 AM34 °FLight snow. Overcast.7 mph93%29.72 "Hg7 mi
2:00 AM34 °FMostly cloudy.9 mph93%29.71 "Hg7 mi
1:00 AM32 °FPassing clouds.8 mph93%29.69 "Hg10 mi
12:00 AM34 °FPassing clouds.8 mph93%29.69 "Hg12 mi
11:00 PM
Jan 24
34 °FOvercast.10 mph87%29.68 "Hg15 mi
10:00 PM34 °FOvercast.12 mph87%29.67 "Hg12 mi
9:00 PM36 °FLight snow. Mostly cloudy.13 mph81%29.67 "Hg8 mi
8:49 PM34 °FLight snow. Mostly cloudy.10 mph87%29.67 "Hg7 mi
8:00 PM34 °FOvercast.8 mph87%29.65 "Hg8 mi
7:00 PM34 °FOvercast.14 mph87%29.63 "Hg7 mi
6:00 PM32 °FIce fog.12 mph87%29.61 "Hg6 mi
5:00 PM34 °FFog.10 mph81%29.60 "Hg6 mi
Weather by CustomWeather, © 2014

See weather overviewHow to use our weather pages